| time (UTC) | temp F | wind direction | speed knots | gust knots | rain 1hr in | rain 24hr in | rain mn in | humidity % | barometer mb |
| 20260502195601 | 53 | 149 | 3.5 | 6.1 | 0.00 | 0.00 | 0.00 | 60 | 1019.9 |
| 20260502195101 | 53 | 148 | 3.5 | 6.1 | 0.00 | 0.00 | 0.00 | 60 | 1019.8 |
| 20260502194604 | 53 | 140 | 4.3 | 7.0 | 0.00 | 0.00 | 0.00 | 60 | 1019.9 |
| 20260502194101 | 53 | 144 | 4.3 | 7.0 | 0.00 | 0.00 | 0.00 | 61 | 1019.9 |
| 20260502193557 | 53 | 156 | 3.5 | 6.1 | 0.00 | 0.00 | 0.00 | 64 | 1019.9 |
| 20260502193046 | 53 | 136 | 2.6 | 6.1 | 0.00 | 0.00 | 0.00 | 64 | 1019.9 |
| 20260502192541 | 54 | 121 | 2.6 | 4.3 | 0.00 | 0.00 | 0.00 | 61 | 1019.9 |
| 20260502192041 | 55 | 125 | 1.7 | 3.5 | 0.00 | 0.00 | 0.00 | 60 | 1019.9 |
| 20260502191542 | 55 | 121 | 1.7 | 3.5 | 0.00 | 0.00 | 0.00 | 58 | 1019.9 |
| 20260502191043 | 56 | 121 | 1.7 | 3.5 | 0.00 | 0.00 | 0.00 | 55 | 1019.9 |
| 20260502190542 | 57 | 126 | 1.7 | 3.5 | 0.00 | 0.00 | 0.00 | 52 | 1019.9 |
| 20260502190045 | 58 | 144 | 1.7 | 3.5 | 0.00 | 0.00 | 0.00 | 51 | 1019.9 |
| 20260502185542 | 60 | 138 | 1.7 | 3.5 | 0.00 | 0.00 | 0.00 | 53 | 1019.9 |
| 20260502185043 | 60 | 132 | 1.7 | 2.6 | 0.00 | 0.00 | 0.00 | 54 | 1019.8 |
| 20260502184541 | 62 | 130 | 1.7 | 2.6 | 0.00 | 0.00 | 0.00 | 54 | 1019.8 |
| 20260502184042 | 62 | 130 | 0.9 | 2.6 | 0.00 | 0.00 | 0.00 | 52 | 1019.8 |
| 20260502183539 | 63 | 130 | 0.0 | 0.0 | 0.00 | 0.00 | 0.00 | 49 | 1019.8 |
| 20260502183037 | 64 | 130 | 0.9 | 1.7 | 0.00 | 0.00 | 0.00 | 47 | 1019.8 |
| 20260502182537 | 65 | 130 | 0.9 | 1.7 | 0.00 | 0.00 | 0.00 | 42 | 1019.7 |
| 20260502182036 | 66 | 130 | 0.9 | 1.7 | 0.00 | 0.00 | 0.00 | 39 | 1019.7 |
| 20260502181538 | 67 | 130 | 1.7 | 2.6 | 0.00 | 0.00 | 0.00 | 37 | 1019.7 |
| 20260502181035 | 67 | 130 | 1.7 | 3.5 | 0.00 | 0.00 | 0.00 | 36 | 1019.6 |
| 20260502180533 | 68 | 113 | 1.7 | 4.3 | 0.00 | 0.00 | 0.00 | 36 | 1019.6 |
| 20260502164021 | 74 | 139 | 3.5 | 7.0 | 0.00 | 0.00 | 0.00 | 27 | 1019.8 |
| 20260502163521 | 74 | 128 | 3.5 | 7.0 | 0.00 | 0.00 | 0.00 | 27 | 1019.8 |
| 20260502163023 | 74 | 161 | 3.5 | 7.0 | 0.00 | 0.00 | 0.00 | 27 | 1019.9 |
| 20260502162509 | 74 | 132 | 3.5 | 7.8 | 0.00 | 0.00 | 0.00 | 27 | 1020.0 |
| 20260502162008 | 74 | 109 | 3.5 | 7.8 | 0.00 | 0.00 | 0.00 | 28 | 1020.2 |
| 20260502161502 | 74 | 120 | 3.5 | 7.0 | 0.00 | 0.00 | 0.00 | 26 | 1020.2 |
| 20260502161001 | 74 | 164 | 3.5 | 7.0 | 0.00 | 0.00 | 0.00 | 27 | 1020.3 |
| 20260502160502 | 74 | 117 | 3.5 | 7.0 | 0.00 | 0.00 | 0.00 | 28 | 1020.3 |
| 20260502152000 | 75 | 126 | 3.5 | 8.7 | 0.00 | 0.00 | 0.00 | 28 | 1020.7 |
| 20260502151457 | 76 | 174 | 1.7 | 5.2 | 0.00 | 0.00 | 0.00 | 27 | 1020.8 |
| 20260502150956 | 75 | 171 | 1.7 | 5.2 | 0.00 | 0.00 | 0.00 | 28 | 1020.9 |
| 20260502150457 | 75 | 252 | 2.6 | 5.2 | 0.00 | 0.00 | 0.00 | 26 | 1020.9 |
| 20260502130440 | 74 | 199 | 4.3 | 8.7 | 0.00 | 0.00 | 0.00 | 27 | 1022.2 |
| 20260502123430 | 73 | 211 | 3.5 | 9.6 | 0.00 | 0.00 | 0.00 | 27 | 1022.4 |
| 20260502122933 | 73 | 81 | 4.3 | 9.6 | 0.00 | 0.00 | 0.00 | 30 | 1022.5 |
| 20260502122430 | 73 | 48 | 4.3 | 9.6 | 0.00 | 0.00 | 0.00 | 30 | 1022.6 |
| 20260502121929 | 74 | 160 | 2.6 | 7.8 | 0.00 | 0.00 | 0.00 | 30 | 1022.7 |
| 20260502121418 | 74 | 88 | 2.6 | 6.1 | 0.00 | 0.00 | 0.00 | 31 | 1022.7 |
| 20260502120913 | 74 | 265 | 2.6 | 6.1 | 0.00 | 0.00 | 0.00 | 28 | 1022.7 |
| 20260502120405 | 74 | 232 | 2.6 | 5.2 | 0.00 | 0.00 | 0.00 | 30 | 1022.8 |
| 20260502115909 | 74 | 211 | 3.5 | 7.8 | 0.00 | 0.00 | 0.00 | 28 | 1022.9 |
| 20260502115404 | 73 | 173 | 3.5 | 7.8 | 0.00 | 0.00 | 0.00 | 29 | 1023.0 |
| 20260502114906 | 73 | 95 | 4.3 | 10.4 | 0.00 | 0.00 | 0.00 | 27 | 1022.9 |
| 20260502114406 | 73 | 128 | 3.5 | 10.4 | 0.00 | 0.00 | 0.00 | 29 | 1023.0 |
| 20260502113906 | 72 | 129 | 3.5 | 7.8 | 0.00 | 0.00 | 0.00 | 31 | 1023.1 |
| 20260502113406 | 72 | 19 | 3.5 | 7.8 | 0.00 | 0.00 | 0.00 | 29 | 1023.2 |
| 20260502112905 | 72 | 129 | 3.5 | 7.8 | 0.00 | 0.00 | 0.00 | 31 | 1023.2 |
| 20260502112405 | 72 | 164 | 2.6 | 6.1 | 0.00 | 0.00 | 0.00 | 34 | 1023.3 |
| 20260502111907 | 72 | 128 | 1.7 | 6.1 | 0.00 | 0.00 | 0.00 | 30 | 1023.4 |
| 20260502111402 | 72 | 197 | 1.7 | 6.1 | 0.00 | 0.00 | 0.00 | 29 | 1023.4 |
| 20260502110905 | 72 | 259 | 2.6 | 7.8 | 0.00 | 0.00 | 0.00 | 35 | 1023.4 |
| 20260502110404 | 71 | 48 | 3.5 | 9.6 | 0.00 | 0.00 | 0.00 | 32 | 1023.5 |
| 20260502105903 | 71 | 176 | 4.3 | 9.6 | 0.00 | 0.00 | 0.00 | 33 | 1023.5 |
| 20260502105402 | 71 | 45 | 3.5 | 8.7 | 0.00 | 0.00 | 0.00 | 30 | 1023.6 |
| 20260502104903 | 71 | 198 | 3.5 | 7.0 | 0.00 | 0.00 | 0.00 | 30 | 1023.6 |
| 20260502104405 | 71 | 185 | 4.3 | 8.7 | 0.00 | 0.00 | 0.00 | 29 | 1023.7 |
| 20260502103404 | 71 | 114 | 2.6 | 6.1 | 0.00 | 0.00 | 0.00 | 32 | 1023.7 |
| 20260502102903 | 71 | 257 | 3.5 | 8.7 | 0.00 | 0.00 | 0.00 | 35 | 1023.7 |
| 20260502102401 | 71 | 178 | 3.5 | 8.7 | 0.00 | 0.00 | 0.00 | 35 | 1024.0 |
| 20260502101854 | 71 | 85 | 3.5 | 8.7 | 0.00 | 0.00 | 0.00 | 35 | 1024.1 |
| 20260502101348 | 71 | 86 | 3.5 | 7.8 | 0.00 | 0.00 | 0.00 | 34 | 1024.1 |
| 20260502100837 | 70 | 74 | 4.3 | 8.7 | 0.00 | 0.00 | 0.00 | 34 | 1024.2 |
| 20260502100331 | 70 | 83 | 3.5 | 8.7 | 0.00 | 0.00 | 0.00 | 36 | 1024.1 |
| 20260502091319 | 69 | 101 | 3.5 | 7.8 | 0.00 | 0.00 | 0.00 | 37 | 1024.9 |
| 20260502090819 | 68 | 129 | 3.5 | 7.8 | 0.00 | 0.00 | 0.00 | 38 | 1024.9 |
| 20260502090319 | 68 | 105 | 2.6 | 7.8 | 0.00 | 0.00 | 0.00 | 36 | 1024.9 |
| 20260502071305 | 61 | 329 | 0.0 | 2.6 | 0.00 | 0.00 | 0.00 | 56 | 1025.4 |
| 20260502070804 | 60 | 331 | 0.0 | 0.0 | 0.00 | 0.00 | 0.00 | 58 | 1025.4 |
| 20260502070302 | 60 | 331 | 0.0 | 0.0 | 0.00 | 0.00 | 0.00 | 58 | 1025.4 |
| 20260502065803 | 59 | 332 | 0.0 | 0.0 | 0.00 | 0.00 | 0.00 | 58 | 1025.5 |
| 20260502065306 | 58 | 335 | 0.0 | 1.7 | 0.00 | 0.00 | 0.00 | 62 | 1025.5 |
| 20260502064802 | 57 | 335 | 0.0 | 1.7 | 0.00 | 0.00 | 0.00 | 61 | 1025.5 |
| 20260502064303 | 56 | 347 | 0.0 | 1.7 | 0.00 | 0.00 | 0.00 | 57 | 1025.5 |
| 20260502063801 | 56 | 123 | 0.0 | 0.0 | 0.00 | 0.00 | 0.00 | 69 | 1025.5 |
| 20260502063300 | 54 | 123 | 0.0 | 0.0 | 0.00 | 0.00 | 0.00 | 71 | 1025.5 |
| 20260502062801 | 53 | 123 | 0.0 | 0.0 | 0.00 | 0.00 | 0.00 | 73 | 1025.5 |
| 20260502062301 | 51 | 27 | 0.0 | 0.0 | 0.00 | 0.00 | 0.00 | 78 | 1025.5 |
| 20260502061803 | 50 | 26 | 0.0 | 0.0 | 0.00 | 0.00 | 0.00 | 79 | 1025.5 |
| 20260502061301 | 49 | 26 | 0.0 | 0.0 | 0.00 | 0.00 | 0.00 | 83 | 1025.5 |
| 20260502060753 | 47 | 26 | 0.0 | 0.0 | 0.00 | 0.00 | 0.00 | 84 | 1025.7 |
| 20260502060252 | 46 | 26 | 0.0 | 0.0 | 0.00 | 0.00 | 0.00 | 85 | 1025.5 |
| 20260502055750 | 45 | 26 | 0.0 | 0.0 | 0.00 | 0.00 | 0.00 | 87 | 1025.5 |
| 20260502055252 | 44 | 26 | 0.0 | 0.0 | 0.00 | 0.00 | 0.00 | 89 | 1025.5 |
| 20260502054750 | 43 | 26 | 0.0 | 0.0 | 0.00 | 0.00 | 0.00 | 89 | 1025.4 |
| 20260502054251 | 42 | 26 | 0.0 | 0.0 | 0.00 | 0.00 | 0.00 | 90 | 1025.5 |
| 20260502053251 | 40 | 26 | 0.0 | 0.0 | 0.00 | 0.00 | 0.00 | 92 | 1025.5 |
| 20260502052744 | 40 | 26 | 0.0 | 0.0 | 0.00 | 0.00 | 0.00 | 93 | 1025.4 |
| 20260502052241 | 39 | 26 | 0.0 | 0.0 | 0.00 | 0.00 | 0.00 | 94 | 1025.4 |
| 20260502051740 | 38 | 26 | 0.0 | 0.9 | 0.00 | 0.00 | 0.00 | 94 | 1025.5 |
| 20260502051239 | 37 | 26 | 0.9 | 2.6 | 0.00 | 0.00 | 0.00 | 94 | 1025.5 |
| 20260502050739 | 37 | 26 | 1.7 | 2.6 | 0.00 | 0.00 | 0.00 | 93 | 1025.5 |
| 20260502050235 | 36 | 26 | 0.9 | 1.7 | 0.00 | 0.00 | 0.00 | 94 | 1025.4 |
| 20260502045736 | 35 | 26 | 0.9 | 3.5 | 0.00 | 0.00 | 0.00 | 93 | 1025.4 |
| 20260502045236 | 35 | 26 | 0.9 | 3.5 | 0.00 | 0.00 | 0.00 | 93 | 1025.4 |
| 20260502044732 | 34 | 19 | 0.0 | 2.6 | 0.00 | 0.00 | 0.00 | 93 | 1025.4 |
| 20260502044233 | 34 | 45 | 0.0 | 0.0 | 0.00 | 0.00 | 0.00 | 92 | 1025.3 |
| 20260502043731 | 33 | 45 | 0.0 | 0.0 | 0.00 | 0.00 | 0.00 | 92 | 1025.3 |
| 20260502043241 | 33 | 45 | 0.0 | 0.0 | 0.00 | 0.00 | 0.00 | 91 | 1025.3 |
| 20260502042729 | 33 | 45 | 0.0 | 0.0 | 0.00 | 0.00 | 0.00 | 91 | 1025.4 |
| 20260502042229 | 33 | 45 | 0.0 | 0.0 | 0.00 | 0.00 | 0.00 | 90 | 1025.4 |
| 20260502041728 | 33 | 45 | 0.0 | 0.0 | 0.00 | 0.00 | 0.00 | 90 | 1025.4 |
| 20260502041225 | 33 | 45 | 0.0 | 0.0 | 0.00 | 0.00 | 0.00 | 90 | 1025.4 |
| 20260502040725 | 33 | 45 | 0.0 | 0.0 | 0.00 | 0.00 | 0.00 | 90 | 1025.3 |
| 20260502040223 | 33 | 45 | 0.0 | 0.0 | 0.00 | 0.00 | 0.00 | 90 | 1025.3 |
| 20260502035720 | 33 | 45 | 0.0 | 0.0 | 0.00 | 0.00 | 0.00 | 90 | 1025.3 |
| 20260502035221 | 33 | 45 | 0.0 | 0.0 | 0.00 | 0.00 | 0.00 | 90 | 1025.3 |
| 20260502034720 | 34 | 45 | 0.0 | 0.0 | 0.00 | 0.00 | 0.00 | 90 | 1025.3 |
| 20260502034219 | 34 | 45 | 0.0 | 0.0 | 0.00 | 0.00 | 0.00 | 91 | 1025.3 |
| 20260502033720 | 34 | 45 | 0.0 | 0.0 | 0.00 | 0.00 | 0.00 | 91 | 1025.3 |
| 20260502033219 | 34 | 45 | 0.0 | 0.0 | 0.00 | 0.00 | 0.00 | 91 | 1025.2 |
| 20260502032711 | 34 | 45 | 0.0 | 0.0 | 0.00 | 0.00 | 0.00 | 91 | 1025.2 |
| 20260502032206 | 34 | 45 | 0.0 | 1.7 | 0.00 | 0.00 | 0.00 | 91 | 1025.2 |
| 20260502031705 | 34 | 45 | 0.0 | 1.7 | 0.00 | 0.00 | 0.00 | 91 | 1025.2 |
| 20260502031204 | 34 | 45 | 0.0 | 0.9 | 0.00 | 0.00 | 0.00 | 91 | 1025.2 |
| 20260502030704 | 33 | 45 | 0.9 | 2.6 | 0.00 | 0.00 | 0.00 | 90 | 1025.3 |
| 20260502030202 | 33 | 45 | 0.9 | 2.6 | 0.00 | 0.00 | 0.00 | 90 | 1025.3 |
| 20260502025701 | 33 | 45 | 1.7 | 2.6 | 0.00 | 0.00 | 0.00 | 89 | 1025.3 |
| 20260502025201 | 34 | 49 | 0.9 | 2.6 | 0.00 | 0.00 | 0.00 | 89 | 1025.3 |
| 20260502024701 | 34 | 49 | 0.0 | 2.6 | 0.00 | 0.00 | 0.00 | 89 | 1025.2 |
| 20260502024202 | 34 | 48 | 0.0 | 0.0 | 0.00 | 0.00 | 0.00 | 89 | 1025.3 |
| 20260502023701 | 34 | 48 | 0.0 | 0.0 | 0.00 | 0.00 | 0.00 | 89 | 1025.3 |
| 20260502023204 | 34 | 48 | 0.0 | 0.0 | 0.00 | 0.00 | 0.00 | 89 | 1025.4 |
| 20260502022701 | 34 | 48 | 0.0 | 0.0 | 0.00 | 0.00 | 0.00 | 88 | 1025.4 |
| 20260502022202 | 34 | 48 | 0.0 | 0.0 | 0.00 | 0.00 | 0.00 | 88 | 1025.4 |
| 20260502021705 | 34 | 48 | 0.0 | 0.0 | 0.00 | 0.00 | 0.00 | 88 | 1025.4 |
| 20260502021202 | 35 | 48 | 0.0 | 0.0 | 0.00 | 0.00 | 0.00 | 88 | 1025.5 |
| 20260502020657 | 35 | 48 | 0.0 | 0.0 | 0.00 | 0.00 | 0.00 | 89 | 1025.4 |
| 20260502020152 | 35 | 48 | 0.0 | 0.0 | 0.00 | 0.00 | 0.00 | 89 | 1025.4 |
| 20260502015649 | 35 | 48 | 0.0 | 0.0 | 0.00 | 0.00 | 0.00 | 89 | 1025.5 |
| 20260502015147 | 35 | 48 | 0.0 | 0.9 | 0.00 | 0.00 | 0.00 | 89 | 1025.5 |
| 20260502014647 | 35 | 48 | 0.9 | 2.6 | 0.00 | 0.00 | 0.00 | 89 | 1025.7 |
| 20260502014142 | 35 | 48 | 0.9 | 2.6 | 0.00 | 0.00 | 0.00 | 88 | 1025.7 |
| 20260502013643 | 35 | 47 | 0.0 | 2.6 | 0.00 | 0.00 | 0.00 | 88 | 1025.8 |
| 20260502013143 | 35 | 46 | 0.0 | 0.0 | 0.00 | 0.00 | 0.00 | 87 | 1025.8 |
| 20260502012642 | 35 | 46 | 0.0 | 0.0 | 0.00 | 0.00 | 0.00 | 87 | 1025.8 |
| 20260502012142 | 35 | 46 | 0.0 | 0.0 | 0.00 | 0.00 | 0.00 | 87 | 1025.8 |
| 20260502011641 | 35 | 46 | 0.0 | 0.0 | 0.00 | 0.00 | 0.00 | 87 | 1025.8 |
| 20260502011142 | 36 | 46 | 0.9 | 1.7 | 0.00 | 0.00 | 0.00 | 87 | 1025.9 |
| 20260502010642 | 36 | 46 | 0.9 | 1.7 | 0.00 | 0.00 | 0.00 | 87 | 1025.9 |
| 20260502010140 | 36 | 46 | 0.9 | 1.7 | 0.00 | 0.00 | 0.00 | 87 | 1025.9 |
| 20260502005639 | 36 | 46 | 0.0 | 1.7 | 0.00 | 0.00 | 0.00 | 87 | 1026.0 |
| 20260502005137 | 36 | 46 | 0.9 | 2.6 | 0.00 | 0.00 | 0.00 | 86 | 1026.0 |
| 20260502004635 | 36 | 46 | 0.9 | 2.6 | 0.00 | 0.00 | 0.00 | 86 | 1026.0 |
| 20260502004132 | 37 | 53 | 0.9 | 2.6 | 0.00 | 0.00 | 0.00 | 87 | 1026.0 |
| 20260502003630 | 37 | 53 | 0.0 | 2.6 | 0.00 | 0.00 | 0.00 | 87 | 1026.1 |
| 20260502003132 | 37 | 51 | 0.0 | 0.0 | 0.00 | 0.00 | 0.00 | 87 | 1026.1 |
| 20260502002629 | 37 | 51 | 0.0 | 1.7 | 0.00 | 0.00 | 0.00 | 87 | 1026.2 |
| 20260502002118 | 37 | 51 | 0.0 | 1.7 | 0.00 | 0.00 | 0.00 | 87 | 1026.2 |
| 20260502001617 | 37 | 51 | 0.9 | 2.6 | 0.00 | 0.00 | 0.00 | 87 | 1026.2 |
| 20260502001111 | 37 | 51 | 0.9 | 2.6 | 0.00 | 0.00 | 0.00 | 86 | 1026.1 |
| 20260502000610 | 37 | 14 | 0.0 | 0.0 | 0.00 | 0.00 | 0.00 | 86 | 1026.1 |
| 20260502000109 | 37 | 14 | 0.0 | 0.0 | 0.00 | 0.00 | 0.00 | 86 | 1026.1 |
| 20260501235609 | 37 | 14 | 0.0 | 0.0 | 0.00 | 0.00 | 0.00 | 85 | 1026.2 |
| 20260501235106 | 37 | 14 | 0.0 | 0.0 | 0.00 | 0.00 | 0.00 | 85 | 1026.1 |
| 20260501234603 | 37 | 14 | 0.0 | 0.0 | 0.00 | 0.00 | 0.00 | 84 | 1026.2 |
| 20260501234102 | 38 | 14 | 0.0 | 0.0 | 0.00 | 0.00 | 0.00 | 84 | 1026.2 |
| 20260501233603 | 38 | 14 | 0.0 | 0.0 | 0.00 | 0.00 | 0.00 | 84 | 1026.2 |
| 20260501233102 | 38 | 14 | 0.0 | 0.0 | 0.00 | 0.00 | 0.00 | 84 | 1026.2 |
| 20260501232602 | 38 | 14 | 0.0 | 0.0 | 0.00 | 0.00 | 0.00 | 84 | 1026.3 |
| 20260501232101 | 38 | 14 | 0.0 | 0.0 | 0.00 | 0.00 | 0.00 | 85 | 1026.3 |
| 20260501231603 | 38 | 14 | 0.0 | 0.0 | 0.00 | 0.00 | 0.00 | 84 | 1026.3 |
| 20260501231102 | 38 | 14 | 0.0 | 0.0 | 0.00 | 0.00 | 0.00 | 84 | 1026.3 |
| 20260501230602 | 38 | 14 | 0.0 | 0.0 | 0.00 | 0.00 | 0.00 | 84 | 1026.3 |
| 20260501225603 | 38 | 14 | 0.0 | 0.0 | 0.00 | 0.00 | 0.00 | 84 | 1026.4 |
| 20260501225103 | 38 | 14 | 0.0 | 0.0 | 0.00 | 0.00 | 0.00 | 84 | 1026.4 |
| 20260501224558 | 39 | 14 | 0.0 | 0.0 | 0.00 | 0.00 | 0.00 | 83 | 1026.4 |
| 20260501224052 | 39 | 14 | 0.0 | 0.0 | 0.00 | 0.00 | 0.00 | 83 | 1026.4 |
| 20260501223550 | 39 | 14 | 0.0 | 0.0 | 0.00 | 0.00 | 0.00 | 83 | 1026.4 |
| 20260501223049 | 39 | 14 | 0.0 | 0.0 | 0.00 | 0.00 | 0.00 | 82 | 1026.4 |
| 20260501222548 | 39 | 14 | 0.0 | 0.0 | 0.00 | 0.00 | 0.00 | 81 | 1026.3 |
| 20260501222046 | 39 | 14 | 0.0 | 0.0 | 0.00 | 0.00 | 0.00 | 81 | 1026.4 |
| 20260501221544 | 39 | 14 | 0.0 | 0.0 | 0.00 | 0.00 | 0.00 | 80 | 1026.3 |
| 20260501221043 | 40 | 14 | 0.0 | 0.0 | 0.00 | 0.00 | 0.00 | 80 | 1026.4 |
| 20260501220542 | 40 | 14 | 0.0 | 0.0 | 0.00 | 0.00 | 0.00 | 79 | 1026.4 |
| 20260501220041 | 40 | 14 | 0.0 | 0.0 | 0.00 | 0.00 | 0.00 | 79 | 1026.4 |
| 20260501215539 | 40 | 14 | 0.0 | 0.0 | 0.00 | 0.00 | 0.00 | 79 | 1026.4 |
| 20260501215036 | 40 | 14 | 0.0 | 0.0 | 0.00 | 0.00 | 0.00 | 78 | 1026.4 |
| 20260501214536 | 41 | 14 | 0.0 | 0.0 | 0.00 | 0.00 | 0.00 | 79 | 1026.4 |
| 20260501214030 | 41 | 14 | 0.0 | 0.0 | 0.00 | 0.00 | 0.00 | 78 | 1026.5 |
| 20260501213530 | 41 | 14 | 0.0 | 0.0 | 0.00 | 0.00 | 0.00 | 77 | 1026.4 |
| 20260501213030 | 41 | 14 | 0.0 | 0.0 | 0.00 | 0.00 | 0.00 | 77 | 1026.4 |
| 20260501212528 | 42 | 14 | 0.0 | 0.0 | 0.00 | 0.00 | 0.00 | 77 | 1026.4 |
| 20260501212028 | 42 | 14 | 0.0 | 0.0 | 0.00 | 0.00 | 0.00 | 75 | 1026.4 |
| 20260501211529 | 42 | 14 | 0.0 | 0.0 | 0.00 | 0.00 | 0.00 | 75 | 1026.4 |
| 20260501211030 | 42 | 14 | 0.0 | 0.0 | 0.00 | 0.00 | 0.00 | 75 | 1026.5 |
| 20260501210523 | 42 | 14 | 0.0 | 0.0 | 0.00 | 0.00 | 0.00 | 75 | 1026.4 |
| 20260501210020 | 43 | 14 | 0.0 | 0.0 | 0.00 | 0.00 | 0.00 | 75 | 1026.5 |
| 20260501205519 | 43 | 14 | 0.0 | 0.0 | 0.00 | 0.00 | 0.00 | 74 | 1026.4 |
| 20260501205021 | 43 | 14 | 0.0 | 0.0 | 0.00 | 0.00 | 0.00 | 74 | 1026.4 |
| 20260501204517 | 43 | 14 | 0.0 | 0.0 | 0.00 | 0.00 | 0.00 | 74 | 1026.5 |
| 20260501204019 | 44 | 14 | 0.0 | 0.0 | 0.00 | 0.00 | 0.00 | 73 | 1026.5 |
| 20260501203516 | 44 | 14 | 0.0 | 0.0 | 0.00 | 0.00 | 0.00 | 72 | 1026.4 |
| 20260501203019 | 44 | 14 | 0.0 | 0.0 | 0.00 | 0.00 | 0.00 | 72 | 1026.5 |
| 20260501202514 | 44 | 14 | 0.0 | 0.0 | 0.00 | 0.00 | 0.00 | 72 | 1026.5 |
| 20260501202017 | 45 | 14 | 0.0 | 0.0 | 0.00 | 0.00 | 0.00 | 71 | 1026.5 |
| 20260501201522 | 45 | 14 | 0.0 | 0.0 | 0.00 | 0.00 | 0.00 | 71 | 1026.4 |
| 20260501201011 | 45 | 14 | 0.0 | 0.0 | 0.00 | 0.00 | 0.00 | 70 | 1026.4 |
| 20260501200510 | 46 | 14 | 0.0 | 0.0 | 0.00 | 0.00 | 0.00 | 69 | 1026.4 |